Olympia, WA

5:33 PM PDT on June 25, 2017 (GMT -0700)
Olympia

Weather History for KOLM - November, 2012

Change the Weather History Date:

Monday, November 5, 2012

  Actual Average Record
Temperature  
Mean Temperature 51 °F 46 °F  
Max Temperature 60 °F 53 °F 64 °F (1949)
Min Temperature 42 °F 38 °F 17 °F (2003)
Degree Days  
Heating Degree Days 14 19  
Month to date heating degree days 52 94  
Since 1 July heating degree days 830 888  
Cooling Degree Days 0 0  
Month to date cooling degree days 0 0  
Year to date cooling degree days 82 106  
Growing Degree Days 1 (Base 50)    
Moisture  
Dew Point 46 °F    
Average Humidity 77    
Maximum Humidity 100    
Minimum Humidity 53    
Precipitation  
Precipitation T in 0.26 in 1.88 in (2006)
Month to date precipitation 1.23 1.23  
Year to date precipitation 41.93 35.14  
Sea Level Pressure  
Sea Level Pressure 30.30 in    
Wind  
Wind Speed 4 mph (NE)    
Max Wind Speed 14 mph    
Max Gust Speed 17 mph    
Visibility 7 miles    
Events Fog    
T = Trace of Precipitation, MM = Missing Value Source: NWS Daily Summary

Daily Weather History Graph

Daily Weather History Graph

Search for Another Location

Airport or City:

Trip Planner

Search our weather history database for the weather conditions in past years. The results will help you decide how hot, cold, wet, or windy it might be!

Date:

Astronomy

Nov. 05, 2012 Rise Set
Actual Time 7:01 AM PST 4:48 PM PST
Civil Twilight 6:28 AM PST 5:20 PM PST
Nautical Twilight 5:52 AM PST 5:57 PM PST
Astronomical Twilight 5:17 AM PST 6:32 PM PST
Moon 10:32 PM PST (11/5) 12:24 PM PST (11/5)
Length of Visible Light 10h 52m
Length of Day
9h 47m
Waning Gibbous, 62% of the Moon is Illuminated
Nov 5
Waning Gibbous
Nov 6
Last Quarter
Nov 13
New
Nov 20
First Quarter
Nov 28
Full

Hourly Weather History & Observations

Time (PST) Temp. Windchill Dew Point Humidity Pressure Visibility Wind Dir Wind Speed Gust Speed Precip Events Conditions
12:54 AM 57.0 °F - 55.0 °F 93% 30.32 in 10.0 mi SW 8.1 mph - 0.00 in   Overcast
1:54 AM 55.9 °F - 55.0 °F 97% 30.34 in 10.0 mi SW 5.8 mph - N/A   Overcast
2:54 AM 55.9 °F - 54.0 °F 93% 30.34 in 10.0 mi SW 4.6 mph - N/A   Overcast
3:54 AM 54.0 °F - 52.0 °F 93% 30.35 in 10.0 mi SE 6.9 mph - N/A   Clear
4:54 AM 50.0 °F - 48.9 °F 96% 30.38 in 8.0 mi Calm Calm - N/A   Clear
5:54 AM 48.0 °F - 48.0 °F 100% 30.37 in 8.0 mi Calm Calm - N/A   Partly Cloudy
6:54 AM 46.9 °F - 46.0 °F 97% 30.38 in 7.0 mi Calm Calm - N/A   Clear
7:31 AM 46.4 °F - 46.4 °F 100% 30.38 in 1.2 mi Calm Calm - N/A   Scattered Clouds
7:37 AM 44.6 °F 43.1 °F 44.6 °F 100% 30.38 in 0.5 mi SE 3.5 mph - N/A Fog Fog
7:45 AM 46.4 °F 45.2 °F 46.4 °F 100% 30.37 in 5.0 mi ESE 3.5 mph - N/A Fog Patches of Fog
7:54 AM 46.0 °F - 46.0 °F 100% 30.38 in 5.0 mi Calm Calm - N/A Fog Patches of Fog
8:54 AM 52.0 °F - 50.0 °F 93% 30.39 in 10.0 mi Calm Calm - N/A   Scattered Clouds
9:54 AM 55.0 °F - 50.0 °F 83% 30.38 in 10.0 mi NNE 3.5 mph - N/A   Partly Cloudy
10:54 AM 57.0 °F - 46.0 °F 67% 30.38 in 7.0 mi ENE 8.1 mph - N/A   Scattered Clouds
11:54 AM 59.0 °F - 46.0 °F 62% 30.38 in 7.0 mi NE 9.2 mph - N/A   Scattered Clouds
12:54 PM 59.0 °F - 46.0 °F 62% 30.35 in 10.0 mi Variable 4.6 mph - N/A   Partly Cloudy
1:54 PM 59.0 °F - 43.0 °F 55% 30.34 in 10.0 mi NNE 10.4 mph - N/A   Partly Cloudy
2:54 PM 57.0 °F - 44.1 °F 62% 30.32 in 10.0 mi NNE 11.5 mph 16.1 mph N/A   Clear
3:54 PM 55.0 °F - 44.1 °F 67% 30.31 in 10.0 mi NNE 8.1 mph - N/A   Clear
4:54 PM 51.1 °F - 43.0 °F 74% 30.30 in 10.0 mi North 5.8 mph - N/A   Clear
5:54 PM 48.9 °F - 44.1 °F 83% 30.28 in 10.0 mi NNE 4.6 mph - N/A   Clear
6:54 PM 46.9 °F - 45.0 °F 93% 30.27 in 10.0 mi Calm Calm - N/A   Clear
7:54 PM 46.9 °F - 45.0 °F 93% 30.25 in 8.0 mi North 4.6 mph - N/A   Clear
8:54 PM 44.1 °F - 43.0 °F 96% 30.24 in 8.0 mi Calm Calm - N/A   Clear
9:54 PM 43.0 °F - 42.1 °F 97% 30.21 in 4.0 mi Calm Calm - N/A   Clear
10:01 PM 42.8 °F - 42.8 °F 100% 30.21 in 1.8 mi Calm Calm - N/A   Clear
10:08 PM 42.8 °F - 42.8 °F 100% 30.20 in 0.8 mi Calm Calm - N/A   Clear
10:15 PM 42.8 °F - 41.0 °F 93% 30.20 in 1.5 mi Calm Calm - N/A   Clear
10:19 PM 42.8 °F - 42.8 °F 100% 30.20 in 3.0 mi Calm Calm - N/A   Clear
10:27 PM 42.8 °F - 42.8 °F 100% 30.20 in 1.8 mi Calm Calm - N/A   Clear
10:35 PM 42.8 °F - 42.8 °F 100% 30.19 in 1.2 mi Calm Calm - N/A   Clear
10:39 PM 42.8 °F - 42.8 °F 100% 30.19 in 2.5 mi Calm Calm - N/A   Clear
10:46 PM 42.8 °F - 42.8 °F 100% 30.19 in 7.0 mi Calm Calm - N/A   Clear
10:54 PM 42.1 °F - 41.0 °F 96% 30.19 in 7.0 mi Calm Calm - N/A   Clear
11:54 PM 42.1 °F - 41.0 °F 96% 30.17 in 8.0 mi Calm Calm - N/A   Clear